Location: Unspecified
(37.3333°N, 0.0000°E)
Time: 18:00:51
(UTC+00:00)

Tiangong 2 - Pass Details

Date: 28 May 2019
Orbit: 376 x 389 km, 42.8° (Epoch: 20 June)

Event Time Altitude Azimuth Distance (km) Brightness Sun altitude
Rises 20:58:24 0° 294° (WNW) 2,238 6.2 -17.6°
Reaches altitude 10° 21:00:29 10° 297° (WNW) 1,384 5.0 -17.9°
Maximum altitude 21:03:35 65° 21° (NNE) 414 1.2 -18.3°
Enters shadow 21:03:57 58° 64° (ENE) 443 1.2 -18.4°
